Starlink 31566

operational
NORAD ID: 59475 Int'l Des: 2024-068 Owner: SPXS Country: US Constellation: starlink
LEOCIRCULAR

Über Starlink 31566

Beschreibung wird geladen...

Live-Position

3D-Globus wird geladen...

Nächste Überflüge

Höhenverlauf

Altitude vs Time

uPlot chart will show altitude changes over time

Zweizeiliger Elementsatz

1 59475U 24068W 25351.75688055 .00000095 00000-0 12990-4 0 9999
2 59475 43.0003 137.0959 0001212 264.4940 95.5773 15.27574673 95996
Epoch: 17. Dez. 2025 • Age: 26 hours

Aktueller Status

Höhe 484.9 km
Geschwindigkeit 7.63 km/s
Subsatellitenpunkt 33.44°N, 118.75°W
Startdatum 10. Apr. 2024
Alter 1.6 years
Typ internet

Technische Details

Klassifizierung Payload
Masse 730.00 kg
Trockenmasse 700.00 kg
Gesamtmasse 730.00 kg
Länge 0.30 m
Durchmesser 4.10 m
Spannweite 29.00 m
Form Box + pan
Hersteller SPXS
Bus-Typ Starlink V2M
Phasenstatus In Orbit
Besitzer/Staat SPXS/US

Große Konstellationen

Loading constellations...